Change the Weather History Date:

Tuesday, July 2, 2013

  Actual Average Record
Temperature  
Mean Temperature 63 °F -  
Max Temperature 66 °F 84 °F 101 °F (1956)
Min Temperature 60 °F 62 °F 52 °F (1950)
Degree Days  
Heating Degree Days 2    
Growing Degree Days 13 (Base 50)    
Moisture  
Dew Point 58 °F    
Average Humidity 83    
Maximum Humidity 92    
Minimum Humidity 60    
Precipitation  
Precipitation 0.00 in - - ()
Sea Level Pressure  
Sea Level Pressure 30.07 in    
Wind  
Wind Speed 11 mph (NNE)    
Max Wind Speed 17 mph    
Max Gust Speed 23 mph    
Visibility 11 miles    
Events Rain    
Averages and records for this station are not official NWS values.
T = Trace of Precipitation, MM = Missing Value Source: NWS Daily Summary

Daily Weather History Graph

Daily Weather History Graph

Search for Another Location

Airport or City:

Trip Planner

Search our weather history database for the weather conditions in past years. The results will help you decide how hot, cold, wet, or windy it might be!

Date:

Astronomy

Jul. 02, 2013 Rise Set
Actual Time 5:19 AM CDT 8:27 PM CDT
Civil Twilight 4:45 AM CDT 9:01 PM CDT
Nautical Twilight 4:02 AM CDT 9:44 PM CDT
Astronomical Twilight 3:10 AM CDT 10:36 PM CDT
Moon 1:24 AM CDT (7/2) 3:39 PM CDT (7/2)
Length of Visible Light 16h 15m
Length of Day
15h 07m
Waning Crescent, 26% of the Moon is Illuminated
Jul 2
Waning Crescent
Jul 8
New
Jul 15
First Quarter
Jul 22
Full
Jul 29
Last Quarter

Hourly Weather History & Observations

Time (CDT) Temp. Dew Point Humidity Pressure Visibility Wind Dir Wind Speed Gust Speed Precip Events Conditions
4:45 AM 66.2 °F 51.8 °F 60% 30.04 in 20.0 mi NE 13.8 mph - N/A   Mostly Cloudy
5:45 AM 64.4 °F 51.8 °F 64% 30.05 in 20.0 mi SE 11.5 mph - N/A   Mostly Cloudy
6:45 AM 64.4 °F 53.6 °F 68% 30.06 in 20.0 mi NE 9.2 mph - N/A   Mostly Cloudy
7:45 AM 66.2 °F 55.4 °F 68% 30.07 in 20.0 mi NE 11.5 mph 17.3 mph N/A   Mostly Cloudy
9:45 AM 66.2 °F 57.2 °F 73% 30.08 in 20.0 mi NNE 11.5 mph 23.0 mph N/A   Overcast
10:45 AM 64.4 °F 59.0 °F 83% 30.08 in 15.0 mi NNE 11.5 mph 23.0 mph N/A   Overcast
11:45 AM 64.4 °F 59.0 °F 83% 30.08 in 10.0 mi NNE 11.5 mph 17.3 mph N/A Rain Light Rain
12:45 PM 64.4 °F 57.2 °F 77% 30.08 in 10.0 mi North 11.5 mph 23.0 mph N/A   Overcast
1:45 PM 62.6 °F 57.2 °F 82% 30.08 in 10.0 mi North 15.0 mph - N/A   Overcast
2:45 PM 62.6 °F 57.2 °F 82% 30.08 in 15.0 mi North 9.2 mph - N/A   Overcast
3:23 PM 60.8 °F 57.2 °F 88% 30.07 in 2.0 mi North 12.7 mph - N/A   Overcast
3:45 PM 62.6 °F 59.0 °F 88% 30.07 in 2.0 mi North 13.8 mph - N/A Rain Light Rain
4:45 PM 62.6 °F 59.0 °F 88% 30.07 in 3.0 mi North 15.0 mph - N/A   Drizzle
5:45 PM 62.6 °F 59.0 °F 88% 30.06 in 4.0 mi North 17.3 mph - N/A Rain Light Rain
6:45 PM 62.6 °F 59.0 °F 88% 30.06 in 10.0 mi North 11.5 mph - N/A   Overcast
7:45 PM 62.6 °F 59.0 °F 88% 30.07 in 10.0 mi North 11.5 mph - N/A   Overcast
8:45 PM 62.6 °F 59.0 °F 88% 30.05 in 10.0 mi North 8.1 mph - N/A   Overcast
9:45 PM 62.6 °F 59.0 °F 88% 30.07 in 10.0 mi North 9.2 mph - N/A   Overcast
9:55 PM 63.0 °F 59.9 °F 90% 30.07 in 10.0 mi North 8.1 mph - N/A   Overcast
10:15 PM 63.0 °F 60.1 °F 90% 30.07 in 10.0 mi North 5.8 mph - N/A   Overcast
10:35 PM 63.1 °F 60.4 °F 91% 30.07 in 7.0 mi North 8.1 mph - N/A   Overcast
10:55 PM 63.5 °F 60.8 °F 91% 30.06 in 7.0 mi North 5.8 mph - N/A   Overcast
11:15 PM 63.5 °F 61.0 °F 91% 30.05 in 7.0 mi North 6.9 mph - N/A   Overcast
11:35 PM 63.5 °F 61.2 °F 92% 30.05 in 7.0 mi North 5.8 mph - N/A   Overcast
11:55 PM 63.5 °F 61.2 °F 92% 30.06 in 7.0 mi North 8.1 mph - N/A   Overcast